TimeAKDT,TemperatureF,Dew PointF,Humidity,Sea Level PressureIn,VisibilityMPH,Wind Direction,Wind SpeedMPH,Gust SpeedMPH,PrecipitationIn,Events,Conditions,WindDirDegrees,DateUTC
12:53 AM,32.0,27.0,82,30.26,10.0,NNE,5.8,-,N/A,,Clear,30,2013-03-23 08:53:00
1:53 AM,30.9,26.1,82,30.26,10.0,Variable,3.5,-,N/A,,Scattered Clouds,0,2013-03-23 09:53:00
2:53 AM,30.9,26.1,82,30.25,10.0,Calm,Calm,-,N/A,,Scattered Clouds,0,2013-03-23 10:53:00
3:53 AM,30.9,26.1,82,30.24,10.0,NE,3.5,-,N/A,,Clear,50,2013-03-23 11:53:00
4:53 AM,32.0,27.0,82,30.24,10.0,ENE,3.5,-,N/A,,Overcast,70,2013-03-23 12:53:00
6:53 AM,33.1,28.0,82,30.24,10.0,NE,4.6,-,N/A,,Overcast,50,2013-03-23 14:53:00
7:53 AM,34.0,28.9,82,30.23,10.0,NNE,3.5,-,N/A,,Overcast,30,2013-03-23 15:53:00
8:53 AM,35.1,30.0,82,30.22,10.0,Variable,5.8,-,N/A,,Overcast,0,2013-03-23 16:53:00
9:53 AM,37.9,30.9,76,30.22,10.0,NNE,9.2,-,N/A,,Overcast,30,2013-03-23 17:53:00
10:53 AM,39.0,30.0,70,30.21,10.0,NNE,9.2,-,N/A,,Overcast,20,2013-03-23 18:53:00
11:53 AM,41.0,30.0,65,30.21,10.0,Calm,Calm,-,N/A,,Overcast,0,2013-03-23 19:53:00
12:53 PM,43.0,28.0,56,30.20,10.0,North,3.5,-,N/A,,Overcast,350,2013-03-23 20:53:00
1:53 PM,42.1,28.0,58,30.19,10.0,South,9.2,-,N/A,,Overcast,180,2013-03-23 21:53:00
2:53 PM,45.0,30.0,56,30.18,10.0,Variable,5.8,-,N/A,,Scattered Clouds,0,2013-03-23 22:53:00
3:53 PM,45.0,28.9,53,30.17,10.0,Variable,4.6,-,N/A,,Mostly Cloudy,0,2013-03-23 23:53:00
4:53 PM,45.0,28.0,52,30.15,10.0,SSW,8.1,-,N/A,,Mostly Cloudy,200,2013-03-24 00:53:00
5:53 PM,43.0,28.0,56,30.14,10.0,NNE,4.6,-,N/A,,Overcast,30,2013-03-24 01:53:00
6:53 PM,39.9,28.0,63,30.13,10.0,Calm,Calm,-,N/A,,Overcast,0,2013-03-24 02:53:00
8:53 PM,39.0,28.9,67,30.12,10.0,Calm,Calm,-,N/A,,Mostly Cloudy,0,2013-03-24 04:53:00
9:53 PM,39.9,30.0,68,30.11,10.0,Calm,Calm,-,N/A,,Overcast,0,2013-03-24 05:53:00
10:53 PM,39.9,30.0,68,30.10,10.0,Calm,Calm,-,N/A,,Overcast,0,2013-03-24 06:53:00
11:53 PM,39.0,30.0,70,30.09,10.0,North,3.5,-,N/A,,Mostly Cloudy,350,2013-03-24 07:53:00